Regional Weather Roundup
Issued by NWS

Home | Current Version | Previous Version | Text Only | Print | Product List | Glossary On
Versions: 1 2 3 4 5 6 7 8 9 10 11 12 13 14 15 16 17 18 19 20 21 22 23 24 25 26 27 28 29 30 31 32 33 34 35 36 37 38 39 40 41 42 43 44 45 46 47 48 49 50
000
ASUS44 KEWX 061211
RWRTX
SOUTH TEXAS REGIONAL WEATHER ROUNDUP
NATIONAL WEATHER SERVICE AUSTIN/SAN ANTONIO TX
700 AM CDT MON JUL 06 2015

NOTE: "FAIR" INDICATED FEW OR NO CLOUDS BELOW 12,000 FEET WITH NO
SIGNIFICANT WEATHER AND/OR OBSTRUCTIONS TO VISIBILITY.

* - THESE STATIONS ARE NOT NWS OR FAA STATIONS...AND ARE NOT SUBJECT
    TO NWS AND FAA QUALITY CONTROL.

TXZ171-172-183>190-061300-
TEXAS HILL COUNTRY AND EDWARDS PLATEAU

CITY           SKY/WX    TMP DP  RH WIND       PRES   REMARKS
JUNCTION       CLOUDY    78  70  76 S9        30.02R
6HR MIN TEMP:  78; 6HR MAX TEMP:  80;

*LLANO         PTCLDY    75  70  83 S5        30.06R
BURNET         CLOUDY    75  69  81 S10G16    30.06R
6HR MIN TEMP:  75; 6HR MAX TEMP:  79;

*HORSESHOE BAY MOCLDY    76  70  82 S6        30.04R
6HR MIN TEMP:  76; 6HR MAX TEMP:  80;

*KERRVILLE     CLOUDY    74  70  88 S14       30.05R
6HR MIN TEMP:  74; 6HR MAX TEMP:  78;

*FREDERICKSBRG CLOUDY    73  68  83 S10       30.05R
6HR MIN TEMP:  73; 6HR MAX TEMP:  77; 6HR PCP:  0.01;

*ROCKSPRINGS   CLOUDY    73  70  88 SE12      30.07R FOG
*BOERNE STAGE  CLOUDY    72  70  94 S14       30.06R
*CASTROVILLE   MOCLDY    75  73  91 SE9       30.04R FOG
HONDO          LGT RAIN  75  72  90 SE12      30.04R
6HR MIN TEMP:  74; 6HR MAX TEMP:  79; 6HR PCP: TRACE;

*UVALDE        MOCLDY    73  72  95 SE9       30.01R FOG
6HR MIN TEMP:  73; 6HR MAX TEMP:  79;

DEL RIO        CLOUDY    78  71  79 SE12      29.96R
6HR MIN TEMP:  78; 6HR MAX TEMP:  84;

LAUGHLIN AFB   MOCLDY    76  73  91 SE9       29.97R
6HR MIN TEMP:  76; 6HR MAX TEMP:  82;

CARRIZO SPRGS  CLEAR     73  70  88 SE8       29.97R
$$

TXZ173-191>194-202-209-217>225-228-061300-
CENTRAL AND SOUTH CENTRAL TEXAS

CITY           SKY/WX    TMP DP  RH WIND       PRES   REMARKS
GEORGETOWN     MOCLDY    79  70  73 S12G21    30.02R
AUSTIN/BERGSTM MOCLDY    76  74  93 S10       30.03R
6HR MIN TEMP:  76; 6HR MAX TEMP:  79;

AUSTIN/MABRY   CLOUDY    77  72  84 VRB6      30.04R
6HR MIN TEMP:  77; 6HR MAX TEMP:  80;

*AUSTIN/EXEC   CLOUDY    77  73  88 S8        30.04R
*LAGO VISTA    MOCLDY    76  71  84 S10       30.05S
6HR MIN TEMP:  76; 6HR MAX TEMP:  79;

SAN MARCOS     MOCLDY    75  72  88 S8        30.04R FOG
NEW BRAUNFELS  MOCLDY    76  73  91 S10       30.02R
6HR MIN TEMP:  76; 6HR MAX TEMP:  80;

RANDOLPH AFB   MOCLDY    75  73  93 S7        30.04R
6HR MIN TEMP:  75; 6HR MAX TEMP:  79;

PT SAN ANTONIO CLOUDY    75  73  94 SE7       30.02R
6HR MIN TEMP:  75; 6HR MAX TEMP:  79;

SAN ANTONIO    MOCLDY    77  72  84 S10       30.04R
6HR MIN TEMP:  77; 6HR MAX TEMP:  80;

STINSON FIELD  CLOUDY    76  73  91 S7        30.01R
6HR MIN TEMP:  76; 6HR MAX TEMP:  80;

*PLEASANTON    MOCLDY    75  73  92 SE9       30.02R FOG
6HR MIN TEMP:  75; 6HR MAX TEMP:  79;

*LA GRANGE     MOCLDY    80  77  91 S7        30.02S FOG
6HR MIN TEMP:  79; 6HR MAX TEMP:  80;

*GIDDINGS      PTCLDY    77  74  90 S8        30.07S FOG
6HR MIN TEMP:  77; 6HR MAX TEMP:  78;

*GONZALES      CLOUDY    79  77  94 S9        30.03R
6HR MIN TEMP:  78; 6HR MAX TEMP:  80;

$$

TXZ163>164-176>182-195>201-210>213-226-227-235-061300-
SOUTHEAST TEXAS

CITY           SKY/WX    TMP DP  RH WIND       PRES   REMARKS
COLLEGE STN    CLOUDY    78  75  90 S7        30.04S
6HR MIN TEMP:  78; 6HR MAX TEMP:  79;

*BRYAN         MOCLDY    77  76  97 S8        30.06R
6HR MIN TEMP:  77; 6HR MAX TEMP:  78;

*CALDWELL      MOCLDY    77  77 100 S7        30.07S
*CROCKETT      PTCLDY    77  77 100 S5        30.09S FOG
*BRENHAM       CLOUDY    80  78  94 S5        30.05S FOG
6HR MIN TEMP:  78; 6HR MAX TEMP:  81;

HUNTSVILLE     CLOUDY    79  76  90 S7        30.07R
6HR MIN TEMP:  78; 6HR MAX TEMP:  80;

CONROE         CLOUDY    77  74  90 SE6       30.07R FOG
6HR MIN TEMP:  76; 6HR MAX TEMP:  79;

HOUSTON BUSH   PTCLDY    80  77  90 S8        30.06R
6HR MIN TEMP:  80; 6HR MAX TEMP:  82;

HOUSTON HOBBY  PTCLDY    79  77  94 SE5       30.06R
6HR MIN TEMP:  79; 6HR MAX TEMP:  80;

*HOUSTON SW AP PTCLDY    68  68 100 CALM      30.06S FOG
6HR MIN TEMP:  68; 6HR MAX TEMP:  71;

PEARLAND       CLEAR     81  77  88 SE5       30.08R
6HR MIN TEMP:  80; 6HR MAX TEMP:  82;

HOUSTON HOOKS  CLOUDY    80  76  87 S5        30.06R
6HR MIN TEMP:  79; 6HR MAX TEMP:  81;

ELLINGTON FLD  PTCLDY    81  77  89 SE5       30.08R
SUGAR LAND     CLOUDY    79  77  94 SE8       30.05S
6HR MIN TEMP:  79; 6HR MAX TEMP:  81;

*HOUSTON EXEC  MOCLDY    77  77 100 S6        30.06S FOG
*CLEVELAND MUN   N/A     75  75 100 CALM      30.08R FOG
6HR MIN TEMP:  74; 6HR MAX TEMP:  77;

*WHARTON       CLEAR     76  75  97 SE5       30.06R FOG
6HR MIN TEMP:  75; 6HR MAX TEMP:  77;

*COLUMBUS      FAIR      77  76  98 SE5       30.04R FOG
6HR MIN TEMP:  77; 6HR MAX TEMP:  78;

$$

TXZ214>216-236>238-061300-
THE UPPER TEXAS COAST

CITY           SKY/WX    TMP DP  RH WIND       PRES   REMARKS
*ORANGE        CLEAR     82  79  93 S8        30.10R HX  92
6HR MIN TEMP:  80; 6HR MAX TEMP:  82;

PORT ARTHUR    CLEAR     80  76  87 S6        30.08R
6HR MIN TEMP:  78; 6HR MAX TEMP:  81;

GALVESTON      PTCLDY    83  79  88 S13       30.08R HX  94
6HR MIN TEMP:  83; 6HR MAX TEMP:  84;

ANGLETON       CLEAR     82  78  88 S8        30.06R HX  91
6HR MIN TEMP:  80; 6HR MAX TEMP:  83;

*BAY CITY      CLEAR     79  78  98 SE3       30.06R FOG
PALACIOS       PTCLDY    82  77  84 S8        30.04R HX  90
6HR MIN TEMP:  82; 6HR MAX TEMP:  84;

$$

TXZ229>234-239>247-061300-
TEXAS COASTAL BEND AND RIO GRANDE PLAINS

CITY           SKY/WX    TMP DP  RH WIND       PRES   REMARKS
VICTORIA       CLEAR     78  77  96 S8        30.04R FOG
6HR MIN TEMP:  77; 6HR MAX TEMP:  79;

*BEEVILLE      CLOUDY   N/A N/A N/A SE8       30.02R FOG
ROCKPORT       PTCLDY    82  76  81 S9        30.02R
6HR MIN TEMP:  81; 6HR MAX TEMP:  83; 6HR PCP: TRACE;

*PORT ARANSAS  CLOUDY    79  77  94 S5        30.03R FOG
6HR MIN TEMP:  79; 6HR MAX TEMP:  81;

*PORT LAVACA   CLEAR     77  75  94 SE6       30.04R FOG
*INGLESIDE     MOCLDY    81  77  88 S10       30.02R
CORPUS CHRISTI MOCLDY    79  76  90 S9        30.02R FOG
6HR MIN TEMP:  79; 6HR MAX TEMP:  81;

CORPUS NAS     MOCLDY    80  78  94 S9        30.02R
*ROBSTOWN        N/A     78  50  37 SE8       30.01S FOG
6HR MIN TEMP:  78; 6HR MAX TEMP:  82;

ALICE          CLOUDY    77  75  93 SE10      30.00R FOG
6HR MIN TEMP:  77; 6HR MAX TEMP:  80; 6HR PCP: TRACE;

KINGSVILLE NAS PTCLDY    79  78  97 SE12      30.01R FOG
6HR MIN TEMP:  78; 6HR MAX TEMP:  80;

COTULLA        LGT RAIN  76  73  91 SE8       29.99R
6HR MIN TEMP:  76; 6HR MAX TEMP:  82; 6HR PCP: TRACE;

*FAITH RANCH     N/A     75  72  88 SE9       29.97R
LAREDO         CLEAR     77  71  81 SE13      29.98R
6HR MIN TEMP:  77; 6HR MAX TEMP:  83;

$$

TXZ248>255-061300-
DEEP SOUTH TEXAS

CITY           SKY/WX    TMP DP  RH WIND       PRES   REMARKS
BROWNSVILLE    CLEAR     78  76  93 SE8       30.01R
6HR MIN TEMP:  78; 6HR MAX TEMP:  81;

PORT ISABEL    CLEAR     79  76  90 SE8       30.00R FOG
6HR MIN TEMP:  78; 6HR MAX TEMP:  80;

*SOUTH PADRE   CLEAR     77  75  94 SW7       30.01R
HARLINGEN      PTCLDY    78  76  93 SE9       29.99R FOG
6HR MIN TEMP:  78; 6HR MAX TEMP:  81;

*HEBBRONVILLE    N/A     75  73  95 SE12G18   30.00S FOG
MCALLEN        MOCLDY    81  75  82 SE9       29.99R HAZE


USA.gov is the U.S. government's official web portal to all federal, state and local government web resources and services.